Time,TemperatureF,DewpointF,PressureIn,WindDirection,WindDirectionDegrees,WindSpeedMPH,WindSpeedGustMPH,Humidity,HourlyPrecipIn,Conditions,Clouds,dailyrainin,SoftwareType,DateUTC
2013-05-19 00:02:00,57.9,45.0,30.08,NNE,15,1.0,2.0,62,0.00,,,0.00,Wunderground v.1.15,2013-05-19 04:02:00,
2013-05-19 00:04:00,57.8,45.3,30.08,North,1,0.0,2.0,63,0.00,,,0.00,Wunderground v.1.15,2013-05-19 04:04:00,
2013-05-19 00:06:00,57.8,45.3,30.08,NNE,30,0.0,2.0,63,0.00,,,0.00,Wunderground v.1.15,2013-05-19 04:06:00,
2013-05-19 00:12:00,57.7,45.2,30.08,NE,38,1.0,1.0,63,0.00,,,0.00,Wunderground v.1.15,2013-05-19 04:12:00,
2013-05-19 00:18:00,57.7,45.2,30.08,NE,34,0.0,1.0,63,0.00,,,0.00,Wunderground v.1.15,2013-05-19 04:18:00,
2013-05-19 00:24:00,57.6,45.5,30.08,NE,43,0.0,1.0,64,0.00,,,0.00,Wunderground v.1.15,2013-05-19 04:24:00,
2013-05-19 00:30:00,57.5,45.4,30.08,NNE,27,0.0,0.0,64,0.00,,,0.00,Wunderground v.1.15,2013-05-19 04:30:00,
2013-05-19 00:36:00,57.5,45.8,30.08,North,360,0.0,0.0,65,0.00,,,0.00,Wunderground v.1.15,2013-05-19 04:36:00,
2013-05-19 00:40:00,57.5,45.8,30.08,North,8,0.0,0.0,65,0.00,,,0.00,Wunderground v.1.15,2013-05-19 04:40:00,
2013-05-19 00:46:00,57.4,45.7,30.08,North,8,0.0,0.0,65,0.00,,,0.00,Wunderground v.1.15,2013-05-19 04:46:00,
2013-05-19 00:52:00,57.4,46.1,30.08,North,9,0.0,0.0,66,0.00,,,0.00,Wunderground v.1.15,2013-05-19 04:52:00,
2013-05-19 00:58:00,57.4,46.1,30.08,NNE,17,0.0,0.0,66,0.00,,,0.00,Wunderground v.1.15,2013-05-19 04:58:00,
2013-05-19 01:04:00,57.4,46.5,30.08,NNE,17,0.0,0.0,67,0.00,,,0.00,Wunderground v.1.15,2013-05-19 05:04:00,
2013-05-19 01:10:00,57.2,46.3,30.07,NNE,17,0.0,0.0,67,0.00,,,0.00,Wunderground v.1.15,2013-05-19 05:10:00,
2013-05-19 01:16:00,57.2,47.1,30.07,NNE,12,0.0,0.0,69,0.00,,,0.00,Wunderground v.1.15,2013-05-19 05:16:00,
2013-05-19 01:22:00,57.2,47.1,30.07,NNE,15,0.0,0.0,69,0.00,,,0.00,Wunderground v.1.15,2013-05-19 05:22:00,
2013-05-19 01:28:00,57.3,47.2,30.07,NE,34,0.0,1.0,69,0.00,,,0.00,Wunderground v.1.15,2013-05-19 05:28:00,
2013-05-19 01:34:00,57.3,47.2,30.07,NE,45,0.0,0.0,69,0.00,,,0.00,Wunderground v.1.15,2013-05-19 05:34:00,
2013-05-19 01:40:00,57.4,47.7,30.07,NNE,24,0.0,0.0,70,0.00,,,0.00,Wunderground v.1.15,2013-05-19 05:40:00,
2013-05-19 01:46:00,57.4,47.7,30.07,NNE,25,0.0,0.0,70,0.00,,,0.00,Wunderground v.1.15,2013-05-19 05:46:00,
2013-05-19 01:52:00,57.3,48.0,30.07,NNE,25,0.0,0.0,71,0.00,,,0.00,Wunderground v.1.15,2013-05-19 05:52:00,
2013-05-19 01:58:00,57.2,47.9,30.07,NNE,24,0.0,0.0,71,0.00,,,0.00,Wunderground v.1.15,2013-05-19 05:58:00,
2013-05-19 02:04:00,57.2,48.3,30.07,NNE,24,0.0,0.0,72,0.00,,,0.00,Wunderground v.1.15,2013-05-19 06:04:00,
2013-05-19 02:10:00,57.2,48.3,30.07,NNE,25,0.0,0.0,72,0.00,,,0.00,Wunderground v.1.15,2013-05-19 06:10:00,
2013-05-19 02:16:00,57.1,48.2,30.07,NNE,24,0.0,0.0,72,0.00,,,0.00,Wunderground v.1.15,2013-05-19 06:16:00,
2013-05-19 02:22:00,56.9,48.0,30.07,NNE,24,0.0,0.0,72,0.00,,,0.00,Wunderground v.1.15,2013-05-19 06:22:00,
2013-05-19 02:28:00,56.6,48.0,30.07,NNE,25,0.0,0.0,73,0.00,,,0.00,Wunderground v.1.15,2013-05-19 06:28:00,
2013-05-19 02:34:00,56.4,48.6,30.07,NNE,25,0.0,0.0,75,0.00,,,0.00,Wunderground v.1.15,2013-05-19 06:34:00,
2013-05-19 02:40:00,56.3,48.8,30.07,NNE,25,0.0,0.0,76,0.00,,,0.00,Wunderground v.1.15,2013-05-19 06:40:00,
2013-05-19 02:46:00,56.5,49.0,30.07,NNE,24,0.0,0.0,76,0.00,,,0.00,Wunderground v.1.15,2013-05-19 06:46:00,
2013-05-19 02:52:00,56.5,49.0,30.06,NNE,24,0.0,0.0,76,0.00,,,0.00,Wunderground v.1.15,2013-05-19 06:52:00,
2013-05-19 02:58:00,56.5,49.7,30.06,NNE,24,0.0,0.0,78,0.00,,,0.00,Wunderground v.1.15,2013-05-19 06:58:00,
2013-05-19 03:04:00,56.6,50.2,30.06,NNE,29,0.0,0.0,79,0.00,,,0.00,Wunderground v.1.15,2013-05-19 07:04:00,
2013-05-19 03:10:00,56.8,50.7,30.06,NNE,30,0.0,0.0,80,0.00,,,0.00,Wunderground v.1.15,2013-05-19 07:10:00,
2013-05-19 03:16:00,57.0,50.9,30.06,NNE,29,0.0,0.0,80,0.00,,,0.00,Wunderground v.1.15,2013-05-19 07:16:00,
2013-05-19 03:22:00,57.2,51.1,30.06,North,8,0.0,0.0,80,0.00,,,0.00,Wunderground v.1.15,2013-05-19 07:22:00,
2013-05-19 03:28:00,57.2,50.7,30.06,North,8,0.0,0.0,79,0.00,,,0.00,Wunderground v.1.15,2013-05-19 07:28:00,
2013-05-19 03:34:00,56.9,50.5,30.06,North,8,0.0,0.0,79,0.00,,,0.00,Wunderground v.1.15,2013-05-19 07:34:00,
2013-05-19 03:40:00,56.7,50.6,30.06,North,8,0.0,0.0,80,0.00,,,0.00,Wunderground v.1.15,2013-05-19 07:40:00,
2013-05-19 03:46:00,56.6,50.5,30.06,North,8,0.0,0.0,80,0.00,,,0.00,Wunderground v.1.15,2013-05-19 07:46:00,
2013-05-19 03:52:00,56.5,50.4,30.06,North,9,0.0,0.0,80,0.00,,,0.00,Wunderground v.1.15,2013-05-19 07:52:00,
2013-05-19 03:58:00,56.3,50.5,30.06,North,8,0.0,0.0,81,0.00,,,0.00,Wunderground v.1.15,2013-05-19 07:58:00,
2013-05-19 04:04:00,56.1,50.3,30.06,North,8,0.0,0.0,81,0.00,,,0.00,Wunderground v.1.15,2013-05-19 08:04:00,
2013-05-19 04:10:00,55.9,50.5,30.06,South,184,0.0,0.0,82,0.00,,,0.00,Wunderground v.1.15,2013-05-19 08:10:00,
2013-05-19 04:16:00,55.7,50.6,30.06,South,185,0.0,0.0,83,0.00,,,0.00,Wunderground v.1.15,2013-05-19 08:16:00,
2013-05-19 04:22:00,55.5,50.7,30.06,South,185,0.0,0.0,84,0.00,,,0.00,Wunderground v.1.15,2013-05-19 08:22:00,
2013-05-19 04:28:00,55.4,50.6,30.06,South,184,0.0,0.0,84,0.00,,,0.00,Wunderground v.1.15,2013-05-19 08:28:00,
2013-05-19 04:34:00,55.1,50.7,30.06,South,184,0.0,0.0,85,0.00,,,0.00,Wunderground v.1.15,2013-05-19 08:34:00,
2013-05-19 04:40:00,55.0,50.6,30.06,South,185,0.0,0.0,85,0.00,,,0.00,Wunderground v.1.15,2013-05-19 08:40:00,
2013-05-19 04:46:00,55.0,50.9,30.06,South,185,0.0,0.0,86,0.00,,,0.00,Wunderground v.1.15,2013-05-19 08:46:00,
2013-05-19 04:52:00,54.7,50.3,30.06,South,185,0.0,0.0,85,0.00,,,0.00,Wunderground v.1.15,2013-05-19 08:52:00,
2013-05-19 04:58:00,54.6,50.5,30.06,South,184,0.0,0.0,86,0.00,,,0.00,Wunderground v.1.15,2013-05-19 08:58:00,
2013-05-19 05:04:00,54.3,50.5,30.06,South,184,0.0,0.0,87,0.00,,,0.00,Wunderground v.1.15,2013-05-19 09:04:00,
2013-05-19 05:10:00,54.2,50.7,30.06,South,184,0.0,0.0,88,0.00,,,0.00,Wunderground v.1.15,2013-05-19 09:10:00,
2013-05-19 05:16:00,54.1,50.6,30.06,South,184,0.0,0.0,88,0.00,,,0.00,Wunderground v.1.15,2013-05-19 09:16:00,
2013-05-19 05:22:00,53.9,50.4,30.06,South,184,0.0,0.0,88,0.00,,,0.00,Wunderground v.1.15,2013-05-19 09:22:00,
2013-05-19 05:28:00,53.6,50.4,30.06,South,184,0.0,0.0,89,0.00,,,0.00,Wunderground v.1.15,2013-05-19 09:28:00,
2013-05-19 05:34:00,53.5,50.3,30.06,South,184,0.0,0.0,89,0.00,,,0.00,Wunderground v.1.15,2013-05-19 09:34:00,
2013-05-19 05:40:00,53.3,50.1,30.06,South,185,0.0,0.0,89,0.00,,,0.00,Wunderground v.1.15,2013-05-19 09:40:00,
2013-05-19 05:46:00,53.1,50.2,30.06,South,184,0.0,0.0,90,0.00,,,0.00,Wunderground v.1.15,2013-05-19 09:46:00,
2013-05-19 05:52:00,53.3,50.7,30.07,South,184,0.0,0.0,91,0.00,,,0.00,Wunderground v.1.15,2013-05-19 09:52:00,
2013-05-19 05:58:00,53.4,50.8,30.07,South,185,0.0,0.0,91,0.00,,,0.00,Wunderground v.1.15,2013-05-19 09:58:00,
2013-05-19 06:04:00,53.4,50.8,30.07,South,184,0.0,0.0,91,0.00,,,0.00,Wunderground v.1.15,2013-05-19 10:04:00,
2013-05-19 06:10:00,53.4,50.8,30.07,South,184,0.0,0.0,91,0.00,,,0.00,Wunderground v.1.15,2013-05-19 10:10:00,
2013-05-19 06:16:00,53.4,50.8,30.07,South,185,0.0,0.0,91,0.00,,,0.00,Wunderground v.1.15,2013-05-19 10:16:00,
2013-05-19 06:22:00,53.3,50.7,30.07,South,184,0.0,0.0,91,0.00,,,0.00,Wunderground v.1.15,2013-05-19 10:22:00,
2013-05-19 06:28:00,53.3,50.7,30.07,South,184,0.0,0.0,91,0.00,,,0.00,Wunderground v.1.15,2013-05-19 10:28:00,
2013-05-19 06:34:00,53.6,51.3,30.07,South,185,0.0,0.0,92,0.00,,,0.00,Wunderground v.1.15,2013-05-19 10:34:00,
2013-05-19 06:40:00,53.7,51.4,30.08,South,185,0.0,0.0,92,0.00,,,0.00,Wunderground v.1.15,2013-05-19 10:40:00,
2013-05-19 06:46:00,53.7,51.1,30.08,South,184,0.0,0.0,91,0.00,,,0.00,Wunderground v.1.15,2013-05-19 10:46:00,
2013-05-19 06:52:00,53.8,51.2,30.08,South,184,0.0,0.0,91,0.00,,,0.00,Wunderground v.1.15,2013-05-19 10:52:00,
2013-05-19 06:58:00,54.1,51.5,30.08,South,184,0.0,0.0,91,0.00,,,0.00,Wunderground v.1.15,2013-05-19 10:58:00,
2013-05-19 07:04:00,54.4,51.8,30.08,South,184,0.0,0.0,91,0.00,,,0.00,Wunderground v.1.15,2013-05-19 11:04:00,
2013-05-19 07:10:00,54.9,52.6,30.08,South,184,0.0,0.0,92,0.00,,,0.00,Wunderground v.1.15,2013-05-19 11:10:00,
2013-05-19 07:16:00,55.4,53.1,30.08,South,184,0.0,0.0,92,0.00,,,0.00,Wunderground v.1.15,2013-05-19 11:16:00,
2013-05-19 07:22:00,56.1,53.8,30.08,South,185,0.0,0.0,92,0.00,,,0.00,Wunderground v.1.15,2013-05-19 11:22:00,
2013-05-19 07:28:00,56.9,54.6,30.08,South,185,0.0,0.0,92,0.00,,,0.00,Wunderground v.1.15,2013-05-19 11:28:00,
2013-05-19 07:34:00,58.1,55.2,30.08,South,184,0.0,0.0,90,0.00,,,0.00,Wunderground v.1.15,2013-05-19 11:34:00,
2013-05-19 07:40:00,59.5,55.6,30.08,SW,214,0.0,0.0,87,0.00,,,0.00,Wunderground v.1.15,2013-05-19 11:40:00,
2013-05-19 07:46:00,60.7,56.2,30.08,SW,215,0.0,0.0,85,0.00,,,0.00,Wunderground v.1.15,2013-05-19 11:46:00,
2013-05-19 07:52:00,61.6,56.0,30.09,South,174,0.0,0.0,82,0.00,,,0.00,Wunderground v.1.15,2013-05-19 11:52:00,
2013-05-19 07:58:00,62.0,56.1,30.09,SE,142,0.0,0.0,81,0.00,,,0.00,Wunderground v.1.15,2013-05-19 11:58:00,
2013-05-19 08:04:00,62.5,56.6,30.09,SW,231,0.0,1.0,81,0.00,,,0.00,Wunderground v.1.15,2013-05-19 12:04:00,
2013-05-19 08:10:00,62.8,56.5,30.09,SE,142,0.0,0.0,80,0.00,,,0.00,Wunderground v.1.15,2013-05-19 12:10:00,
2013-05-19 08:16:00,63.2,56.6,30.08,South,174,0.0,1.0,79,0.00,,,0.00,Wunderground v.1.15,2013-05-19 12:16:00,
2013-05-19 08:22:00,63.4,56.8,30.08,WSW,240,0.0,3.0,79,0.00,,,0.00,Wunderground v.1.15,2013-05-19 12:22:00,
2013-05-19 08:28:00,63.7,56.7,30.09,SE,136,0.0,3.0,78,0.00,,,0.00,Wunderground v.1.15,2013-05-19 12:28:00,
2013-05-19 08:34:00,63.8,56.4,30.09,South,188,0.0,1.0,77,0.00,,,0.00,Wunderground v.1.15,2013-05-19 12:34:00,
2013-05-19 08:40:00,64.1,56.7,30.09,SSW,210,0.0,1.0,77,0.00,,,0.00,Wunderground v.1.15,2013-05-19 12:40:00,
2013-05-19 08:50:00,64.5,56.8,30.09,SW,228,0.0,2.0,76,0.00,,,0.00,Wunderground v.1.15,2013-05-19 12:50:00,
2013-05-19 08:56:00,64.9,57.2,30.09,SSW,198,0.0,2.0,76,0.00,,,0.00,Wunderground v.1.15,2013-05-19 12:56:00,
2013-05-19 09:02:00,65.2,57.1,30.09,SW,214,1.0,1.0,75,0.00,,,0.00,Wunderground v.1.15,2013-05-19 13:02:00,
2013-05-19 09:08:00,65.4,57.3,30.09,SSW,201,1.0,1.0,75,0.00,,,0.00,Wunderground v.1.15,2013-05-19 13:08:00,
2013-05-19 09:14:00,65.7,57.6,30.08,SW,225,0.0,1.0,75,0.00,,,0.00,Wunderground v.1.15,2013-05-19 13:14:00,
2013-05-19 09:20:00,66.1,57.6,30.08,SW,225,1.0,1.0,74,0.00,,,0.00,Wunderground v.1.15,2013-05-19 13:20:00,
2013-05-19 09:26:00,66.5,58.0,30.08,SW,222,1.0,1.0,74,0.00,,,0.00,Wunderground v.1.15,2013-05-19 13:26:00,
2013-05-19 09:32:00,66.9,58.0,30.08,SW,214,0.0,1.0,73,0.00,,,0.00,Wunderground v.1.15,2013-05-19 13:32:00,
2013-05-19 09:38:00,67.4,58.4,30.08,SW,225,0.0,1.0,73,0.00,,,0.00,Wunderground v.1.15,2013-05-19 13:38:00,
2013-05-19 09:44:00,68.2,58.8,30.08,SSE,150,1.0,1.0,72,0.00,,,0.00,Wunderground v.1.15,2013-05-19 13:44:00,
2013-05-19 09:50:00,68.9,58.7,30.08,SW,214,1.0,1.0,70,0.00,,,0.00,Wunderground v.1.15,2013-05-19 13:50:00,
2013-05-19 09:56:00,69.7,59.5,30.08,South,169,0.0,1.0,70,0.00,,,0.00,Wunderground v.1.15,2013-05-19 13:56:00,
2013-05-19 10:02:00,70.7,59.2,30.08,West,263,0.0,1.0,67,0.00,,,0.00,Wunderground v.1.15,2013-05-19 14:02:00,
2013-05-19 10:08:00,71.4,59.0,30.07,SW,236,0.0,1.0,65,0.00,,,0.00,Wunderground v.1.15,2013-05-19 14:08:00,
2013-05-19 10:14:00,71.5,60.0,30.07,SSE,163,1.0,1.0,67,0.00,,,0.00,Wunderground v.1.15,2013-05-19 14:14:00,
2013-05-19 10:20:00,71.8,59.0,30.07,SW,236,1.0,2.0,64,0.00,,,0.00,Wunderground v.1.15,2013-05-19 14:20:00,
2013-05-19 10:26:00,71.7,58.9,30.07,SSW,200,1.0,2.0,64,0.00,,,0.00,Wunderground v.1.15,2013-05-19 14:26:00,
2013-05-19 10:32:00,72.5,59.6,30.07,ENE,74,1.0,1.0,64,0.00,,,0.00,Wunderground v.1.15,2013-05-19 14:32:00,
2013-05-19 10:38:00,73.1,59.8,30.07,SE,124,1.0,3.0,63,0.00,,,0.00,Wunderground v.1.15,2013-05-19 14:38:00,
2013-05-19 10:44:00,73.7,59.4,30.06,NNE,32,1.0,1.0,61,0.00,,,0.00,Wunderground v.1.15,2013-05-19 14:44:00,
2013-05-19 10:50:00,74.1,60.7,30.06,SE,139,0.0,0.0,63,0.00,,,0.00,Wunderground v.1.15,2013-05-19 14:50:00,
2013-05-19 10:56:00,74.5,60.2,30.06,SSW,207,1.0,3.0,61,0.00,,,0.00,Wunderground v.1.15,2013-05-19 14:56:00,
2013-05-19 11:02:00,74.4,60.1,30.05,South,179,1.0,1.0,61,0.00,,,0.00,Wunderground v.1.15,2013-05-19 15:02:00,
2013-05-19 11:08:00,74.3,59.0,30.05,SE,137,1.0,2.0,59,0.00,,,0.00,Wunderground v.1.15,2013-05-19 15:08:00,
2013-05-19 11:14:00,74.6,59.3,30.05,SSW,212,1.0,1.0,59,0.00,,,0.00,Wunderground v.1.15,2013-05-19 15:14:00,
2013-05-19 11:20:00,75.0,59.7,30.05,WNW,300,1.0,1.0,59,0.00,,,0.00,Wunderground v.1.15,2013-05-19 15:20:00,
2013-05-19 11:26:00,75.3,60.9,30.05,NW,312,1.0,1.0,61,0.00,,,0.00,Wunderground v.1.15,2013-05-19 15:26:00,
2013-05-19 11:32:00,75.6,59.3,30.04,SW,233,1.0,2.0,57,0.00,,,0.00,Wunderground v.1.15,2013-05-19 15:32:00,
2013-05-19 11:38:00,76.0,60.2,30.05,SSE,153,1.0,2.0,58,0.00,,,0.00,Wunderground v.1.15,2013-05-19 15:38:00,
2013-05-19 11:44:00,76.2,60.3,30.05,North,6,1.0,1.0,58,0.00,,,0.00,Wunderground v.1.15,2013-05-19 15:44:00,
2013-05-19 11:50:00,76.9,60.0,30.04,WSW,238,0.0,0.0,56,0.00,,,0.00,Wunderground v.1.15,2013-05-19 15:50:00,
2013-05-19 11:56:00,77.3,59.9,30.04,SW,216,0.0,1.0,55,0.00,,,0.00,Wunderground v.1.15,2013-05-19 15:56:00,
2013-05-19 12:02:00,77.9,60.4,30.04,SW,232,1.0,1.0,55,0.00,,,0.00,Wunderground v.1.15,2013-05-19 16:02:00,
2013-05-19 12:08:00,78.5,59.4,30.04,SE,137,1.0,1.0,52,0.00,,,0.00,Wunderground v.1.15,2013-05-19 16:08:00,
2013-05-19 12:14:00,79.0,61.5,30.03,ESE,104,1.0,2.0,55,0.00,,,0.00,Wunderground v.1.15,2013-05-19 16:14:00,
2013-05-19 12:20:00,78.9,60.3,30.03,ESE,115,1.0,1.0,53,0.00,,,0.00,Wunderground v.1.15,2013-05-19 16:20:00,
2013-05-19 12:26:00,79.1,60.5,30.03,North,354,1.0,2.0,53,0.00,,,0.00,Wunderground v.1.15,2013-05-19 16:26:00,
2013-05-19 12:32:00,79.3,60.7,30.03,SSW,203,1.0,1.0,53,0.00,,,0.00,Wunderground v.1.15,2013-05-19 16:32:00,
2013-05-19 12:38:00,79.3,60.7,30.03,SW,225,1.0,1.0,53,0.00,,,0.00,Wunderground v.1.15,2013-05-19 16:38:00,
2013-05-19 12:44:00,78.9,60.8,30.02,SW,219,1.0,1.0,54,0.00,,,0.00,Wunderground v.1.15,2013-05-19 16:44:00,
2013-05-19 12:50:00,79.2,60.6,30.02,SSE,163,1.0,1.0,53,0.00,,,0.00,Wunderground v.1.15,2013-05-19 16:50:00,
2013-05-19 12:56:00,78.9,61.4,30.02,SSW,212,1.0,3.0,55,0.00,,,0.00,Wunderground v.1.15,2013-05-19 16:56:00,
2013-05-19 13:02:00,78.8,60.7,30.01,ESE,122,1.0,1.0,54,0.00,,,0.00,Wunderground v.1.15,2013-05-19 17:02:00,
2013-05-19 13:08:00,79.1,60.5,30.01,WNW,303,2.0,3.0,53,0.00,,,0.00,Wunderground v.1.15,2013-05-19 17:08:00,
2013-05-19 13:14:00,79.7,61.6,30.01,WSW,255,1.0,2.0,54,0.00,,,0.00,Wunderground v.1.15,2013-05-19 17:14:00,
2013-05-19 13:20:00,80.3,62.7,30.01,SE,143,1.0,1.0,55,0.00,,,0.00,Wunderground v.1.15,2013-05-19 17:20:00,
2013-05-19 13:26:00,80.5,60.7,30.00,SW,217,1.0,1.0,51,0.00,,,0.00,Wunderground v.1.15,2013-05-19 17:26:00,
2013-05-19 13:32:00,80.9,62.2,30.00,North,351,1.0,3.0,53,0.00,,,0.00,Wunderground v.1.15,2013-05-19 17:32:00,
2013-05-19 13:38:00,80.9,61.1,30.00,NW,315,1.0,3.0,51,0.00,,,0.00,Wunderground v.1.15,2013-05-19 17:38:00,
2013-05-19 13:44:00,80.5,61.3,29.99,North,8,1.0,2.0,52,0.00,,,0.00,Wunderground v.1.15,2013-05-19 17:44:00,
2013-05-19 13:50:00,80.6,60.8,29.99,SW,226,2.0,2.0,51,0.00,,,0.00,Wunderground v.1.15,2013-05-19 17:50:00,
2013-05-19 13:56:00,80.9,61.6,29.99,WSW,249,1.0,2.0,52,0.00,,,0.00,Wunderground v.1.15,2013-05-19 17:56:00,
2013-05-19 14:02:00,80.8,61.0,29.99,SE,137,1.0,1.0,51,0.00,,,0.00,Wunderground v.1.15,2013-05-19 18:02:00,
2013-05-19 14:08:00,81.3,60.3,29.98,WSW,258,0.0,1.0,49,0.00,,,0.00,Wunderground v.1.15,2013-05-19 18:08:00,
2013-05-19 14:14:00,81.8,61.9,29.98,ENE,77,1.0,1.0,51,0.00,,,0.00,Wunderground v.1.15,2013-05-19 18:14:00,
2013-05-19 14:20:00,82.1,61.0,29.98,WNW,294,1.0,1.0,49,0.00,,,0.00,Wunderground v.1.15,2013-05-19 18:20:00,
2013-05-19 14:26:00,82.4,61.3,29.98,ESE,108,1.0,3.0,49,0.00,,,0.00,Wunderground v.1.15,2013-05-19 18:26:00,
2013-05-19 14:32:00,82.7,61.6,29.98,South,176,1.0,1.0,49,0.00,,,0.00,Wunderground v.1.15,2013-05-19 18:32:00,
2013-05-19 14:38:00,82.9,60.6,29.98,SSW,195,1.0,1.0,47,0.00,,,0.00,Wunderground v.1.15,2013-05-19 18:38:00,
2013-05-19 14:44:00,82.7,60.4,29.98,ESE,119,1.0,1.0,47,0.00,,,0.00,Wunderground v.1.15,2013-05-19 18:44:00,
2013-05-19 14:50:00,82.7,61.0,29.97,SE,134,1.0,1.0,48,0.00,,,0.00,Wunderground v.1.15,2013-05-19 18:50:00,
2013-05-19 14:56:00,82.3,60.6,29.97,WSW,239,1.0,1.0,48,0.00,,,0.00,Wunderground v.1.15,2013-05-19 18:56:00,
2013-05-19 15:02:00,82.7,61.6,29.97,SW,229,1.0,1.0,49,0.00,,,0.00,Wunderground v.1.15,2013-05-19 19:02:00,
2013-05-19 15:08:00,83.4,63.4,29.96,SW,231,0.0,1.0,51,0.00,,,0.00,Wunderground v.1.15,2013-05-19 19:08:00,
2013-05-19 15:14:00,84.2,62.4,29.97,SW,233,1.0,1.0,48,0.00,,,0.00,Wunderground v.1.15,2013-05-19 19:14:00,
2013-05-19 15:20:00,84.3,61.3,29.97,SSW,195,1.0,1.0,46,0.00,,,0.00,Wunderground v.1.15,2013-05-19 19:20:00,
2013-05-19 15:26:00,84.4,60.7,29.96,SE,139,1.0,1.0,45,0.00,,,0.00,Wunderground v.1.15,2013-05-19 19:26:00,
2013-05-19 15:32:00,84.9,61.2,29.96,North,360,0.0,1.0,45,0.00,,,0.00,Wunderground v.1.15,2013-05-19 19:32:00,
2013-05-19 15:38:00,84.3,60.6,29.96,WSW,243,1.0,1.0,45,0.00,,,0.00,Wunderground v.1.15,2013-05-19 19:38:00,
2013-05-19 15:44:00,84.5,59.5,29.96,WSW,253,0.0,4.0,43,0.00,,,0.00,Wunderground v.1.15,2013-05-19 19:44:00,
2013-05-19 15:50:00,85.0,60.0,29.95,WSW,252,0.0,0.0,43,0.00,,,0.00,Wunderground v.1.15,2013-05-19 19:50:00,
2013-05-19 15:56:00,85.3,58.2,29.95,SW,231,0.0,1.0,40,0.00,,,0.00,Wunderground v.1.15,2013-05-19 19:56:00,
2013-05-19 16:02:00,85.7,60.6,29.95,WNW,300,1.0,1.0,43,0.00,,,0.00,Wunderground v.1.15,2013-05-19 20:02:00,
2013-05-19 16:08:00,85.3,60.9,29.96,SW,221,1.0,2.0,44,0.00,,,0.00,Wunderground v.1.15,2013-05-19 20:08:00,
2013-05-19 16:14:00,85.6,60.5,29.95,NNE,16,1.0,2.0,43,0.00,,,0.00,Wunderground v.1.15,2013-05-19 20:14:00,
2013-05-19 16:20:00,85.1,60.1,29.95,WSW,256,1.0,1.0,43,0.00,,,0.00,Wunderground v.1.15,2013-05-19 20:20:00,
2013-05-19 16:26:00,84.4,60.1,29.95,West,265,1.0,1.0,44,0.00,,,0.00,Wunderground v.1.15,2013-05-19 20:26:00,
2013-05-19 16:32:00,83.0,59.5,29.95,North,360,1.0,2.0,45,0.00,,,0.00,Wunderground v.1.15,2013-05-19 20:32:00,
2013-05-19 16:38:00,83.1,60.2,29.95,NW,324,1.0,2.0,46,0.00,,,0.00,Wunderground v.1.15,2013-05-19 20:38:00,
2013-05-19 16:44:00,82.8,59.9,29.95,NNE,12,1.0,1.0,46,0.00,,,0.00,Wunderground v.1.15,2013-05-19 20:44:00,
2013-05-19 16:50:00,82.8,61.1,29.95,WSW,240,0.0,0.0,48,0.00,,,0.00,Wunderground v.1.15,2013-05-19 20:50:00,
2013-05-19 16:56:00,83.1,60.8,29.95,WSW,249,0.0,0.0,47,0.00,,,0.00,Wunderground v.1.15,2013-05-19 20:56:00,
2013-05-19 17:02:00,83.1,60.2,29.94,West,264,0.0,1.0,46,0.00,,,0.00,Wunderground v.1.15,2013-05-19 21:02:00,
2013-05-19 17:08:00,81.7,61.8,29.95,North,353,1.0,3.0,51,0.00,,,0.00,Wunderground v.1.15,2013-05-19 21:08:00,
2013-05-19 17:14:00,80.4,61.7,29.95,NNE,19,3.0,5.0,53,0.00,,,0.00,Wunderground v.1.15,2013-05-19 21:14:00,
2013-05-19 17:20:00,79.5,61.9,29.95,NNE,12,3.0,3.0,55,0.00,,,0.00,Wunderground v.1.15,2013-05-19 21:20:00,
2013-05-19 17:26:00,79.4,61.8,29.95,NNE,19,3.0,4.0,55,0.00,,,0.00,Wunderground v.1.15,2013-05-19 21:26:00,
2013-05-19 17:32:00,79.3,62.7,29.94,NE,39,3.0,6.0,57,0.00,,,0.00,Wunderground v.1.15,2013-05-19 21:32:00,
2013-05-19 17:38:00,79.6,62.5,29.94,North,1,3.0,6.0,56,0.00,,,0.00,Wunderground v.1.15,2013-05-19 21:38:00,
2013-05-19 17:44:00,79.9,62.8,29.94,North,8,2.0,3.0,56,0.00,,,0.00,Wunderground v.1.15,2013-05-19 21:44:00,
2013-05-19 17:50:00,80.6,62.9,29.94,NE,46,2.0,2.0,55,0.00,,,0.00,Wunderground v.1.15,2013-05-19 21:50:00,
2013-05-19 17:56:00,81.1,63.9,29.94,NE,49,1.0,2.0,56,0.00,,,0.00,Wunderground v.1.15,2013-05-19 21:56:00,
2013-05-19 18:02:00,81.5,63.3,29.94,NNE,25,1.0,1.0,54,0.00,,,0.00,Wunderground v.1.15,2013-05-19 22:02:00,
2013-05-19 18:08:00,81.0,62.8,29.94,NNE,24,1.0,2.0,54,0.00,,,0.00,Wunderground v.1.15,2013-05-19 22:08:00,
2013-05-19 18:14:00,80.5,62.8,29.93,NW,314,2.0,3.0,55,0.00,,,0.00,Wunderground v.1.15,2013-05-19 22:14:00,
2013-05-19 18:20:00,80.4,63.3,29.94,North,356,2.0,2.0,56,0.00,,,0.00,Wunderground v.1.15,2013-05-19 22:20:00,
2013-05-19 18:26:00,80.5,63.4,29.93,NE,42,1.0,4.0,56,0.00,,,0.00,Wunderground v.1.15,2013-05-19 22:26:00,
2013-05-19 18:32:00,80.6,63.5,29.93,NE,47,1.0,2.0,56,0.00,,,0.00,Wunderground v.1.15,2013-05-19 22:32:00,
2013-05-19 18:38:00,80.4,62.8,29.93,NNE,26,1.0,2.0,55,0.00,,,0.00,Wunderground v.1.15,2013-05-19 22:38:00,
2013-05-19 18:44:00,80.5,63.4,29.93,North,353,1.0,3.0,56,0.00,,,0.00,Wunderground v.1.15,2013-05-19 22:44:00,
2013-05-19 18:50:00,80.4,63.3,29.93,SE,135,1.0,2.0,56,0.00,,,0.00,Wunderground v.1.15,2013-05-19 22:50:00,
2013-05-19 18:56:00,80.2,63.1,29.93,SSW,193,0.0,2.0,56,0.00,,,0.00,Wunderground v.1.15,2013-05-19 22:56:00,
2013-05-19 19:02:00,80.0,63.4,29.93,SSW,210,0.0,0.0,57,0.00,,,0.00,Wunderground v.1.15,2013-05-19 23:02:00,
2013-05-19 19:08:00,79.6,63.0,29.93,North,9,0.0,0.0,57,0.00,,,0.00,Wunderground v.1.15,2013-05-19 23:08:00,
2013-05-19 19:14:00,78.9,62.9,29.93,ENE,73,1.0,3.0,58,0.00,,,0.00,Wunderground v.1.15,2013-05-19 23:14:00,
2013-05-19 19:20:00,78.7,63.2,29.93,NNW,328,1.0,1.0,59,0.00,,,0.00,Wunderground v.1.15,2013-05-19 23:20:00,
2013-05-19 19:26:00,78.3,63.3,29.93,SSE,153,1.0,4.0,60,0.00,,,0.00,Wunderground v.1.15,2013-05-19 23:26:00,
2013-05-19 19:32:00,77.7,63.2,29.93,SW,236,1.0,1.0,61,0.00,,,0.00,Wunderground v.1.15,2013-05-19 23:32:00,
2013-05-19 19:38:00,77.3,63.3,29.93,South,188,1.0,2.0,62,0.00,,,0.00,Wunderground v.1.15,2013-05-19 23:38:00,
2013-05-19 19:44:00,76.9,63.3,29.93,SSE,150,1.0,1.0,63,0.00,,,0.00,Wunderground v.1.15,2013-05-19 23:44:00,
2013-05-19 19:50:00,76.5,63.4,29.93,SW,222,1.0,1.0,64,0.00,,,0.00,Wunderground v.1.15,2013-05-19 23:50:00,
2013-05-19 19:56:00,76.1,63.5,29.93,SE,131,1.0,1.0,65,0.00,,,0.00,Wunderground v.1.15,2013-05-19 23:56:00,
2013-05-19 20:02:00,75.7,63.5,29.93,SSE,153,0.0,1.0,66,0.00,,,0.00,Wunderground v.1.15,2013-05-20 00:02:00,
2013-05-19 20:08:00,75.3,63.6,29.93,South,169,0.0,1.0,67,0.00,,,0.00,Wunderground v.1.15,2013-05-20 00:08:00,
2013-05-19 20:14:00,75.0,63.3,29.93,SE,134,0.0,0.0,67,0.00,,,0.00,Wunderground v.1.15,2013-05-20 00:14:00,
2013-05-19 20:20:00,74.8,63.5,29.93,SSE,159,0.0,0.0,68,0.00,,,0.00,Wunderground v.1.15,2013-05-20 00:20:00,
2013-05-19 20:26:00,74.8,63.5,29.94,SSW,198,1.0,1.0,68,0.00,,,0.00,Wunderground v.1.15,2013-05-20 00:26:00,
2013-05-19 20:32:00,74.7,63.0,29.93,SSW,206,1.0,1.0,67,0.00,,,0.00,Wunderground v.1.15,2013-05-20 00:32:00,
2013-05-19 20:38:00,74.5,63.2,29.93,South,191,1.0,1.0,68,0.00,,,0.00,Wunderground v.1.15,2013-05-20 00:38:00,
2013-05-19 20:44:00,74.3,63.1,29.93,SSE,157,1.0,2.0,68,0.00,,,0.00,Wunderground v.1.15,2013-05-20 00:44:00,
2013-05-19 20:50:00,74.2,63.0,29.93,SW,221,1.0,3.0,68,0.00,,,0.00,Wunderground v.1.15,2013-05-20 00:50:00,
2013-05-19 20:56:00,74.0,62.8,29.93,SSW,208,1.0,3.0,68,0.00,,,0.00,Wunderground v.1.15,2013-05-20 00:56:00,
2013-05-19 21:02:00,73.9,62.7,29.93,SSE,156,1.0,1.0,68,0.00,,,0.00,Wunderground v.1.15,2013-05-20 01:02:00,
2013-05-19 21:08:00,73.6,62.4,29.92,SE,145,2.0,3.0,68,0.00,,,0.00,Wunderground v.1.15,2013-05-20 01:08:00,
2013-05-19 21:14:00,73.3,62.5,29.93,SW,219,2.0,2.0,69,0.00,,,0.00,Wunderground v.1.15,2013-05-20 01:14:00,
2013-05-19 21:20:00,73.0,62.2,29.94,SSE,156,2.0,2.0,69,0.00,,,0.00,Wunderground v.1.15,2013-05-20 01:20:00,
2013-05-19 21:26:00,72.7,61.9,29.94,West,277,1.0,2.0,69,0.00,,,0.00,Wunderground v.1.15,2013-05-20 01:26:00,
2013-05-19 21:32:00,72.2,61.9,29.94,ESE,111,2.0,2.0,70,0.00,,,0.00,Wunderground v.1.15,2013-05-20 01:32:00,
2013-05-19 21:38:00,71.7,62.2,29.94,SE,142,2.0,5.0,72,0.00,,,0.00,Wunderground v.1.15,2013-05-20 01:38:00,
2013-05-19 21:44:00,71.3,61.8,29.94,SSE,162,2.0,2.0,72,0.00,,,0.00,Wunderground v.1.15,2013-05-20 01:44:00,
2013-05-19 21:50:00,70.9,61.8,29.95,SSW,196,1.0,1.0,73,0.00,,,0.00,Wunderground v.1.15,2013-05-20 01:50:00,
2013-05-19 21:56:00,70.6,61.5,29.95,SSW,194,1.0,1.0,73,0.00,,,0.00,Wunderground v.1.15,2013-05-20 01:56:00,
2013-05-19 22:02:00,70.4,61.7,29.95,SE,146,1.0,2.0,74,0.00,,,0.00,Wunderground v.1.15,2013-05-20 02:02:00,
2013-05-19 22:08:00,70.1,61.4,29.95,West,266,1.0,2.0,74,0.00,,,0.00,Wunderground v.1.15,2013-05-20 02:08:00,
2013-05-19 22:14:00,69.9,61.2,29.95,SSW,205,0.0,1.0,74,0.00,,,0.00,Wunderground v.1.15,2013-05-20 02:14:00,
2013-05-19 22:20:00,69.7,61.0,29.95,SSW,202,0.0,1.0,74,0.00,,,0.00,Wunderground v.1.15,2013-05-20 02:20:00,
2013-05-19 22:26:00,69.7,61.0,29.96,South,179,0.0,1.0,74,0.00,,,0.00,Wunderground v.1.15,2013-05-20 02:26:00,
2013-05-19 22:32:00,69.5,60.8,29.97,SW,222,0.0,1.0,74,0.00,,,0.00,Wunderground v.1.15,2013-05-20 02:32:00,
2013-05-19 22:38:00,69.3,60.7,29.97,SSW,204,0.0,1.0,74,0.00,,,0.00,Wunderground v.1.15,2013-05-20 02:38:00,
2013-05-19 22:44:00,69.2,60.6,29.97,South,169,1.0,1.0,74,0.00,,,0.00,Wunderground v.1.15,2013-05-20 02:44:00,
2013-05-19 22:50:00,69.1,60.8,29.96,SW,221,1.0,1.0,75,0.00,,,0.00,Wunderground v.1.15,2013-05-20 02:50:00,
2013-05-19 22:56:00,69.0,60.7,29.96,SW,233,0.0,1.0,75,0.00,,,0.00,Wunderground v.1.15,2013-05-20 02:56:00,
2013-05-19 23:02:00,68.9,60.6,29.97,SE,138,0.0,0.0,75,0.00,,,0.00,Wunderground v.1.15,2013-05-20 03:02:00,
2013-05-19 23:08:00,68.7,60.5,29.97,SE,146,0.0,1.0,75,0.00,,,0.00,Wunderground v.1.15,2013-05-20 03:08:00,
2013-05-19 23:14:00,68.6,60.4,29.97,SE,136,0.0,1.0,75,0.00,,,0.00,Wunderground v.1.15,2013-05-20 03:14:00,
2013-05-19 23:20:00,68.5,60.3,29.97,ESE,102,0.0,0.0,75,0.00,,,0.00,Wunderground v.1.15,2013-05-20 03:20:00,
2013-05-19 23:26:00,68.4,60.2,29.97,South,181,0.0,1.0,75,0.00,,,0.00,Wunderground v.1.15,2013-05-20 03:26:00,
2013-05-19 23:32:00,68.1,59.9,29.96,South,180,0.0,2.0,75,0.00,,,0.00,Wunderground v.1.15,2013-05-20 03:32:00,
2013-05-19 23:38:00,68.0,59.8,29.96,SW,229,1.0,2.0,75,0.00,,,0.00,Wunderground v.1.15,2013-05-20 03:38:00,
2013-05-19 23:44:00,67.7,59.9,29.96,SW,225,0.0,1.0,76,0.00,,,0.00,Wunderground v.1.15,2013-05-20 03:44:00,
2013-05-19 23:50:00,67.5,59.7,29.96,South,191,0.0,0.0,76,0.00,,,0.00,Wunderground v.1.15,2013-05-20 03:50:00,
2013-05-19 23:56:00,67.3,59.5,29.96,SW,232,0.0,0.0,76,0.00,,,0.00,Wunderground v.1.15,2013-05-20 03:56:00,